WJA107 CYLW-CYVR

Flight info

Callsign WJA107
Flight time 0h 39m
Altitude 16000
Route CYLW BOOTH CYVR
Aircraft B738/M-V/N

Departure

Time 2026-05-08 02:49
Airport Kelowna International Airport (CYLW)

Arrival

Time 2026-05-08 03:29
Airport Vancouver International Airport (CYVR)
Time Latitude Longitude Altitude Speed Heading
2026-05-08 02:39 49.94978 -119.38011 1419 ft 0 kts 311°
2026-05-08 02:45 49.94971 -119.37999 1417 ft 3 kts 309°
2026-05-08 02:45 49.94955 -119.38000 1417 ft 0 kts 65°
2026-05-08 02:45 49.94958 -119.37994 1417 ft 1 kts 65°
2026-05-08 02:45 49.94965 -119.37969 1417 ft 3 kts 64°
2026-05-08 02:46 49.94976 -119.37936 1417 ft 3 kts 64°
2026-05-08 02:46 49.94988 -119.37895 1417 ft 4 kts 64°
2026-05-08 02:46 49.94996 -119.37871 1417 ft 0 kts 64°
2026-05-08 02:47 49.94989 -119.37891 1417 ft 5 kts 64°
2026-05-08 02:47 49.94983 -119.37904 1417 ft 3 kts 92°
2026-05-08 02:47 49.94928 -119.37832 1417 ft 13 kts 169°
2026-05-08 02:48 49.94819 -119.37802 1418 ft 20 kts 155°
2026-05-08 02:48 49.94793 -119.37772 1418 ft 0 kts 129°
2026-05-08 02:49 49.94760 -119.37695 1420 ft 25 kts 104°
2026-05-08 02:49 49.94912 -119.37676 1420 ft 39 kts 353°
2026-05-08 02:49 49.95585 -119.37781 1432 ft 145 kts 357°
2026-05-08 02:49 49.96712 -119.37910 2173 ft 176 kts 355°
2026-05-08 02:50 49.97972 -119.38084 3191 ft 201 kts 356°
2026-05-08 02:50 49.99424 -119.38316 4267 ft 226 kts 355°
2026-05-08 02:50 50.01041 -119.38576 5438 ft 247 kts 354°
2026-05-08 02:50 50.02734 -119.38826 6787 ft 258 kts 354°
2026-05-08 02:51 50.04532 -119.39068 8083 ft 271 kts 354°
2026-05-08 02:51 50.06395 -119.39298 9332 ft 276 kts 355°
2026-05-08 02:51 50.08303 -119.39562 10446 ft 282 kts 349°
2026-05-08 02:51 50.10155 -119.40673 11287 ft 296 kts 329°
2026-05-08 02:52 50.11914 -119.42431 12088 ft 311 kts 328°
2026-05-08 02:52 50.13858 -119.44147 12843 ft 327 kts 333°
2026-05-08 02:52 50.15966 -119.45551 13749 ft 337 kts 339°
2026-05-08 02:52 50.18168 -119.46703 14939 ft 340 kts 341°
2026-05-08 02:53 50.20446 -119.47749 15857 ft 345 kts 342°
2026-05-08 02:53 50.22733 -119.48740 16000 ft 347 kts 343°
2026-05-08 02:53 50.25071 -119.49738 16058 ft 344 kts 341°
2026-05-08 02:53 50.27168 -119.51420 16073 ft 341 kts 320°
2026-05-08 02:54 50.28612 -119.54280 16078 ft 341 kts 298°
2026-05-08 02:54 50.29294 -119.57803 16087 ft 345 kts 280°
2026-05-08 02:54 50.29294 -119.61602 16083 ft 361 kts 267°
2026-05-08 02:54 50.28784 -119.65595 16085 ft 385 kts 255°
2026-05-08 02:55 50.27802 -119.69508 16097 ft 384 kts 248°
2026-05-08 02:55 50.25482 -119.76546 16104 ft 356 kts 245°
2026-05-08 02:55 50.24316 -119.79986 16100 ft 357 kts 245°
2026-05-08 02:56 50.23200 -119.83415 16102 ft 356 kts 246°
2026-05-08 02:56 50.22114 -119.86858 16095 ft 356 kts 247°
2026-05-08 02:56 50.21046 -119.90306 16090 ft 356 kts 247°
2026-05-08 02:56 50.19965 -119.93817 16088 ft 355 kts 247°
2026-05-08 02:57 50.18904 -119.97272 16085 ft 356 kts 247°
2026-05-08 02:57 50.17838 -120.00732 16084 ft 355 kts 247°
2026-05-08 02:57 50.16775 -120.04176 16085 ft 355 kts 247°
2026-05-08 02:57 50.15692 -120.07677 16082 ft 355 kts 247°
2026-05-08 02:58 50.14628 -120.11113 16091 ft 355 kts 247°
2026-05-08 02:58 50.13562 -120.14546 16095 ft 354 kts 246°
2026-05-08 02:58 50.12480 -120.18028 16091 ft 355 kts 246°
2026-05-08 02:58 50.11405 -120.21481 16092 ft 355 kts 246°
2026-05-08 02:59 50.10337 -120.24905 16089 ft 355 kts 246°
2026-05-08 02:59 50.09259 -120.28358 16087 ft 356 kts 246°
2026-05-08 02:59 50.08171 -120.31838 16088 ft 355 kts 246°
2026-05-08 02:59 50.07100 -120.35259 16085 ft 356 kts 246°
2026-05-08 03:00 50.06007 -120.38745 16079 ft 356 kts 246°
2026-05-08 03:00 50.04926 -120.42191 16084 ft 357 kts 246°
2026-05-08 03:00 50.03835 -120.45657 16075 ft 356 kts 246°
2026-05-08 03:00 50.02760 -120.49070 16077 ft 356 kts 246°
2026-05-08 03:01 50.01666 -120.52539 16071 ft 355 kts 246°
2026-05-08 03:01 50.00588 -120.55950 16072 ft 355 kts 246°
2026-05-08 03:01 49.99507 -120.59370 16074 ft 354 kts 246°
2026-05-08 03:01 49.98409 -120.62837 16069 ft 355 kts 246°
2026-05-08 03:02 49.97333 -120.66230 16067 ft 354 kts 245°
2026-05-08 03:02 49.96237 -120.69684 16063 ft 355 kts 245°
2026-05-08 03:02 49.95148 -120.73105 16071 ft 354 kts 245°
2026-05-08 03:02 49.94058 -120.76530 16075 ft 358 kts 245°
2026-05-08 03:03 49.92944 -120.80028 16066 ft 367 kts 245°
2026-05-08 03:03 49.91792 -120.83638 16077 ft 378 kts 245°
2026-05-08 03:03 49.90630 -120.87269 16074 ft 370 kts 245°
2026-05-08 03:03 49.89508 -120.90760 16075 ft 362 kts 245°
2026-05-08 03:04 49.88370 -120.94305 16072 ft 366 kts 245°
2026-05-08 03:04 49.87236 -120.97832 16064 ft 365 kts 245°
2026-05-08 03:04 49.86121 -121.01295 16070 ft 355 kts 245°
2026-05-08 03:04 49.85025 -121.04694 16075 ft 353 kts 245°
2026-05-08 03:05 49.83935 -121.08073 16087 ft 356 kts 244°
2026-05-08 03:05 49.82833 -121.11484 16092 ft 353 kts 244°
2026-05-08 03:05 49.81737 -121.14871 16098 ft 354 kts 244°
2026-05-08 03:05 49.80639 -121.18256 16103 ft 352 kts 244°
2026-05-08 03:06 49.79536 -121.21657 16110 ft 353 kts 244°
2026-05-08 03:06 49.78441 -121.25026 16118 ft 353 kts 244°
2026-05-08 03:06 49.77338 -121.28415 16113 ft 357 kts 244°
2026-05-08 03:06 49.76216 -121.31861 16105 ft 358 kts 244°
2026-05-08 03:07 49.75095 -121.35301 16102 ft 360 kts 244°
2026-05-08 03:07 49.73962 -121.38772 16098 ft 358 kts 244°
2026-05-08 03:07 49.72844 -121.42190 16088 ft 357 kts 244°
2026-05-08 03:07 49.71733 -121.45585 16084 ft 353 kts 244°
2026-05-08 03:08 49.70633 -121.48947 16084 ft 354 kts 244°
2026-05-08 03:08 49.69515 -121.52358 16080 ft 354 kts 244°
2026-05-08 03:08 49.68402 -121.55749 16083 ft 357 kts 244°
2026-05-08 03:08 49.67272 -121.59186 16085 ft 357 kts 244°
2026-05-08 03:09 49.66158 -121.62571 16083 ft 357 kts 244°
2026-05-08 03:09 49.65022 -121.66022 16084 ft 361 kts 243°
2026-05-08 03:09 49.63838 -121.69611 16079 ft 387 kts 243°
2026-05-08 03:09 49.62609 -121.73328 16084 ft 388 kts 243°
2026-05-08 03:10 49.61393 -121.76992 16102 ft 396 kts 243°
2026-05-08 03:10 49.60105 -121.80870 16000 ft 407 kts 243°
2026-05-08 03:10 49.58830 -121.84701 15655 ft 404 kts 243°
2026-05-08 03:10 49.57545 -121.88558 14999 ft 401 kts 243°
2026-05-08 03:11 49.56281 -121.92348 14550 ft 400 kts 243°
2026-05-08 03:11 49.55006 -121.96163 14130 ft 400 kts 243°
2026-05-08 03:11 49.53760 -121.99889 13596 ft 386 kts 243°
2026-05-08 03:11 49.52539 -122.03538 12947 ft 392 kts 243°
2026-05-08 03:12 49.51238 -122.07252 12329 ft 392 kts 240°
2026-05-08 03:12 49.49849 -122.10818 11994 ft 383 kts 238°
2026-05-08 03:12 49.48467 -122.14181 11964 ft 368 kts 237°
2026-05-08 03:12 49.47115 -122.17427 11956 ft 355 kts 237°
2026-05-08 03:13 49.45813 -122.20586 11953 ft 340 kts 238°
2026-05-08 03:13 49.44587 -122.23618 11965 ft 329 kts 238°
2026-05-08 03:13 49.43420 -122.26535 11985 ft 315 kts 238°
2026-05-08 03:13 49.42302 -122.29352 11967 ft 303 kts 238°
2026-05-08 03:14 49.41230 -122.32053 11952 ft 292 kts 239°
2026-05-08 03:14 49.40184 -122.34610 11814 ft 277 kts 235°
2026-05-08 03:14 49.39025 -122.36882 11589 ft 257 kts 229°
2026-05-08 03:14 49.37881 -122.38850 11324 ft 242 kts 227°
2026-05-08 03:15 49.36778 -122.40694 11003 ft 223 kts 227°
2026-05-08 03:15 49.35777 -122.42392 10544 ft 210 kts 227°
2026-05-08 03:15 49.34832 -122.44006 10159 ft 196 kts 227°
2026-05-08 03:15 49.33957 -122.45496 9869 ft 182 kts 227°
2026-05-08 03:16 49.33149 -122.46872 9616 ft 169 kts 227°
2026-05-08 03:16 49.32388 -122.48169 9313 ft 162 kts 227°
2026-05-08 03:16 49.31635 -122.49453 8940 ft 161 kts 227°
2026-05-08 03:16 49.30889 -122.50725 8567 ft 161 kts 228°
2026-05-08 03:17 49.30148 -122.51982 8185 ft 160 kts 228°
2026-05-08 03:17 49.29409 -122.53239 7840 ft 159 kts 228°
2026-05-08 03:17 49.28672 -122.54495 7563 ft 160 kts 228°
2026-05-08 03:17 49.27937 -122.55750 7334 ft 158 kts 228°
2026-05-08 03:18 49.27196 -122.57017 7143 ft 160 kts 228°
2026-05-08 03:18 49.26462 -122.58269 6935 ft 159 kts 228°
2026-05-08 03:18 49.25727 -122.59521 6747 ft 158 kts 228°
2026-05-08 03:18 49.24992 -122.60777 6548 ft 158 kts 229°
2026-05-08 03:19 49.24257 -122.62030 6384 ft 158 kts 228°
2026-05-08 03:19 49.23527 -122.63274 6194 ft 157 kts 228°
2026-05-08 03:19 49.22807 -122.64500 6000 ft 155 kts 228°
2026-05-08 03:19 49.22097 -122.65709 5820 ft 149 kts 227°
2026-05-08 03:20 49.21418 -122.66866 5653 ft 142 kts 227°
2026-05-08 03:20 49.20770 -122.67985 5487 ft 141 kts 231°
2026-05-08 03:20 49.20238 -122.69245 5324 ft 142 kts 240°
2026-05-08 03:20 49.19740 -122.70543 5140 ft 141 kts 239°
2026-05-08 03:21 49.19236 -122.71799 4982 ft 139 kts 238°
2026-05-08 03:21 49.18723 -122.73063 4880 ft 139 kts 238°
2026-05-08 03:21 49.18218 -122.74309 4822 ft 140 kts 238°
2026-05-08 03:21 49.17699 -122.75590 4785 ft 142 kts 238°
2026-05-08 03:22 49.17178 -122.76878 4732 ft 145 kts 238°
2026-05-08 03:22 49.16711 -122.78265 4692 ft 147 kts 246°
2026-05-08 03:22 49.16386 -122.79735 4652 ft 147 kts 257°
2026-05-08 03:22 49.16270 -122.81272 4640 ft 147 kts 269°
2026-05-08 03:23 49.16312 -122.82886 4492 ft 156 kts 276°
2026-05-08 03:23 49.16444 -122.84618 4201 ft 167 kts 278°
2026-05-08 03:23 49.16620 -122.86357 3950 ft 164 kts 280°
2026-05-08 03:23 49.16810 -122.88063 3719 ft 160 kts 280°
2026-05-08 03:24 49.16998 -122.89710 3502 ft 156 kts 281°
2026-05-08 03:24 49.17184 -122.91326 3287 ft 154 kts 280°
2026-05-08 03:24 49.17371 -122.92922 3072 ft 152 kts 280°
2026-05-08 03:24 49.17552 -122.94479 2869 ft 150 kts 280°
2026-05-08 03:25 49.17734 -122.96035 2673 ft 148 kts 280°
2026-05-08 03:25 49.17916 -122.97594 2450 ft 148 kts 279°
2026-05-08 03:25 49.18093 -122.99121 2242 ft 148 kts 279°
2026-05-08 03:25 49.18274 -123.00676 2037 ft 148 kts 279°
2026-05-08 03:26 49.18455 -123.02231 1835 ft 148 kts 279°
2026-05-08 03:26 49.18634 -123.03776 1634 ft 148 kts 279°
2026-05-08 03:26 49.18815 -123.05316 1433 ft 147 kts 279°
2026-05-08 03:26 49.18985 -123.06768 1245 ft 147 kts 279°
2026-05-08 03:27 49.19166 -123.08324 1044 ft 147 kts 278°
2026-05-08 03:27 49.19342 -123.09843 847 ft 146 kts 279°
2026-05-08 03:27 49.19517 -123.11351 653 ft 144 kts 278°
2026-05-08 03:27 49.19691 -123.12861 460 ft 142 kts 278°
2026-05-08 03:28 49.19859 -123.14324 274 ft 138 kts 278°
2026-05-08 03:28 49.20024 -123.15758 92 ft 133 kts 278°
2026-05-08 03:28 49.20164 -123.17055 15 ft 106 kts 277°
2026-05-08 03:28 49.20295 -123.18118 18 ft 70 kts 276°
2026-05-08 03:29 49.20294 -123.18474 18 ft 17 kts 251°
2026-05-08 03:29 49.20258 -123.18645 18 ft 15 kts 253°
2026-05-08 03:29 49.20249 -123.18688 18 ft 0 kts 253°
2026-05-08 03:29 49.20248 -123.18690 18 ft 3 kts 253°
2026-05-08 03:30 49.20241 -123.18730 18 ft 0 kts 253°
2026-05-08 03:31 49.20240 -123.18735 18 ft 1 kts 253°
2026-05-08 03:32 49.20234 -123.18763 18 ft 3 kts 254°
2026-05-08 03:32 49.20223 -123.18823 18 ft 9 kts 255°
2026-05-08 03:32 49.20198 -123.18916 18 ft 9 kts 241°
2026-05-08 03:32 49.20156 -123.19002 18 ft 10 kts 225°
2026-05-08 03:33 49.20086 -123.19043 17 ft 12 kts 188°
2026-05-08 03:33 49.19997 -123.19063 15 ft 13 kts 191°
2026-05-08 03:33 49.19902 -123.19095 15 ft 14 kts 191°
2026-05-08 03:33 49.19805 -123.19121 15 ft 14 kts 189°
2026-05-08 03:34 49.19707 -123.19144 15 ft 14 kts 189°
2026-05-08 03:34 49.19606 -123.19171 15 ft 14 kts 190°
2026-05-08 03:34 49.19517 -123.19113 15 ft 14 kts 147°
2026-05-08 03:34 49.19434 -123.19019 15 ft 15 kts 141°
2026-05-08 03:35 49.19352 -123.18920 15 ft 15 kts 144°
2026-05-08 03:35 49.19261 -123.18825 15 ft 15 kts 142°
2026-05-08 03:35 49.19189 -123.18719 17 ft 13 kts 136°
2026-05-08 03:35 49.19145 -123.18623 18 ft 10 kts 90°
2026-05-08 03:36 49.19168 -123.18536 18 ft 7 kts 69°
2026-05-08 03:36 49.19173 -123.18463 18 ft 6 kts 116°
2026-05-08 03:36 49.19138 -123.18411 18 ft 7 kts 138°
2026-05-08 03:36 49.19118 -123.18342 18 ft 7 kts 92°
2026-05-08 03:37 49.19125 -123.18285 18 ft 1 kts 38°
2026-05-08 03:37 49.19138 -123.18290 18 ft 3 kts 341°
2026-05-08 03:37 49.19165 -123.18292 18 ft 4 kts 11°
2026-05-08 03:37 49.19198 -123.18283 18 ft 5 kts 11°
2026-05-08 03:38 49.19198 -123.18282 18 ft 0 kts 11°